TimeMST,TemperatureF,Dew PointF,Humidity,Sea Level PressureIn,VisibilityMPH,Wind Direction,Wind SpeedMPH,Gust SpeedMPH,PrecipitationIn,Events,Conditions,WindDirDegrees,DateUTC
12:53 AM,17.1,10.0,74,29.93,10.0,South,4.6,-,N/A,,Clear,180,2013-02-23 07:53:00
1:53 AM,18.0,6.1,60,29.91,10.0,SSW,8.1,-,N/A,,Partly Cloudy,210,2013-02-23 08:53:00
2:53 AM,18.0,3.9,54,29.88,10.0,SW,6.9,-,N/A,,Scattered Clouds,230,2013-02-23 09:53:00
3:53 AM,18.0,3.9,54,29.87,10.0,SW,8.1,-,N/A,,Scattered Clouds,220,2013-02-23 10:53:00
4:53 AM,15.1,3.9,61,29.86,10.0,South,5.8,-,N/A,,Scattered Clouds,190,2013-02-23 11:53:00
5:53 AM,19.9,6.1,55,29.84,10.0,South,8.1,-,N/A,,Mostly Cloudy,190,2013-02-23 12:53:00
6:53 AM,19.9,6.1,55,29.84,10.0,South,5.8,-,N/A,,Mostly Cloudy,170,2013-02-23 13:53:00
7:53 AM,24.1,9.0,53,29.85,10.0,SSW,5.8,-,N/A,,Mostly Cloudy,200,2013-02-23 14:53:00
8:53 AM,30.9,12.0,46,29.83,10.0,SSW,9.2,-,N/A,,Mostly Cloudy,210,2013-02-23 15:53:00
9:53 AM,36.0,14.0,41,29.78,10.0,South,9.2,-,N/A,,Mostly Cloudy,180,2013-02-23 16:53:00
10:53 AM,36.0,16.0,44,29.78,10.0,SE,8.1,-,N/A,,Mostly Cloudy,140,2013-02-23 17:53:00
11:53 AM,39.0,12.0,33,29.73,10.0,SE,8.1,-,N/A,,Mostly Cloudy,140,2013-02-23 18:53:00
12:53 PM,43.0,14.0,31,29.68,10.0,East,6.9,-,N/A,,Mostly Cloudy,100,2013-02-23 19:53:00
1:53 PM,45.0,16.0,31,29.62,10.0,ESE,8.1,-,N/A,,Mostly Cloudy,110,2013-02-23 20:53:00
2:53 PM,44.1,21.0,40,29.61,10.0,East,13.8,-,N/A,,Mostly Cloudy,80,2013-02-23 21:53:00
3:53 PM,43.0,18.0,37,29.62,10.0,ENE,8.1,-,N/A,,Mostly Cloudy,60,2013-02-23 22:53:00
4:53 PM,39.9,19.0,43,29.65,10.0,North,4.6,-,N/A,,Mostly Cloudy,10,2013-02-23 23:53:00
5:53 PM,34.0,21.9,61,29.65,10.0,NNW,10.4,-,N/A,,Scattered Clouds,330,2013-02-24 00:53:00
6:53 PM,32.0,25.0,75,29.70,10.0,NW,10.4,-,N/A,,Mostly Cloudy,320,2013-02-24 01:53:00
7:53 PM,30.9,23.0,72,29.71,10.0,NW,8.1,-,N/A,,Mostly Cloudy,310,2013-02-24 02:53:00
8:53 PM,30.9,21.9,69,29.70,10.0,North,6.9,-,N/A,,Mostly Cloudy,350,2013-02-24 03:53:00
9:53 PM,30.0,21.9,72,29.71,10.0,North,5.8,-,N/A,,Mostly Cloudy,350,2013-02-24 04:53:00
10:53 PM,30.0,21.9,72,29.71,10.0,NNW,17.3,-,N/A,,Mostly Cloudy,340,2013-02-24 05:53:00
11:07 PM,28.4,24.8,86,29.66,2.5,NNW,15.0,-,0.00,Snow,Light Snow,340,2013-02-24 06:07:00
11:13 PM,28.4,24.8,86,29.66,1.8,NNW,12.7,-,0.00,Snow,Light Snow,340,2013-02-24 06:13:00
11:27 PM,28.4,26.6,93,29.66,1.8,NNW,12.7,-,0.00,Snow,Light Snow,340,2013-02-24 06:27:00
11:32 PM,26.6,26.6,100,29.66,2.0,North,15.0,-,0.00,Snow,Light Snow,350,2013-02-24 06:32:00
11:53 PM,28.0,26.1,92,29.71,4.0,North,16.1,-,0.00,Snow,Light Snow,350,2013-02-24 06:53:00